Location: Agadir Mansour Mhndou
(31.2424°N, 8.7730°W)
Time: 05:33:24
(UTC+00:00)

Cosmos 2322 Rocket - Pass Details

Date: 16 October 2021
Orbit: 832 x 851 km, 71.0° (Epoch: 28 November)

Event Time Altitude Azimuth Distance (km) Brightness Sun altitude
Rises 19:58:08 0° 194° (SSW) 3,362 5.4 -25.6°
Reaches altitude 10° 20:00:34 10° 193° (SSW) 2,430 4.7 -26.1°
Enters shadow 20:05:02 57° 174° (S) 968 2.3 -27.0°
